Torna al catalogo

STARLINK-36947

AttivoComunicazioniSSO
NORAD 68033·PAYLOAD·🇺🇸 United States

Lanciato Mar 1, 2026 da Vandenberg Space Force Base

Loading…

Prossimi Passaggi (prossime 24 ore)

TLE

AggiornatoSource: CelesTrak SupGP

Epoca: Sep 15, 2026, 03:37 UTC

1 68033C 26040U   26258.15118056  .00051766  00000+0  16073-2 0  2583
2 68033  97.2852 205.5816 0002066  97.9215 101.5047 15.33404898    13

Traccia STARLINK-36947 in tempo reale con AllMySat

Download on the App Store